Home > Weather > Kuopio > Past weeks

Flag for Finland Weather for the Past 2 Weeks in Kuopio, Finland

Now
59 °F

Passing clouds.


Feels Like: 57 °F
Forecast: 43 / 59 °F
Wind: 9 mph from West

Location: Kuopio Airport

Current Time: May 3, 2016 at 2:49:32 PM

Latest Report: May 3, 2016 at 1:50 PM


Visibility: N/A

Pressure: 30.09 "Hg

Humidity: 29%

Dew Point: 27 °F

Location of KuopioLocation

Historic Weather in Kuopio — Graph

°F

Kuopio Temperature Yesterday

Maximum temperature yesterday: 61 °F (at 2:50 PM)
Minimum temperature yesterday: 37 °F (at 3:20 AM)
Average temperature yesterday: 50 °F

High & Low Weather Summary for the Past Weeks

 TemperatureHumidityPressure
High61 °F (Apr 30, 3:20 PM)100% (Apr 18, 1:50 PM)30.36 "Hg (Apr 18, 1:50 PM)
Low27 °F (Apr 24, 5:20 AM)25% (May 3, 1:20 PM)29.36 "Hg (Apr 18, 1:20 PM)
Average42 °F81%29.89 "Hg
* Reported Apr 18 1:20 PM — May 3 1:20 PM, Kuopio, Weather by CustomWeather, © 2016

Note: Actual official high and low records may vary slightly from our data, if they occured in-between our weather recording intervals... More about our weather records

Advertising

Kuopio Weather History for the Previous 24 Hours

Scroll right to see more
 ConditionsComfort  
Time TempWeatherWind HumidityBarometerVisibility
1:20 PM
Tue, May 3
59 °FSunny.9 mph25%30.09 "Hg10 mi
12:50 PM59 °FSunny.9 mph29%30.09 "Hg10 mi
12:20 PM57 °FSunny.8 mph33%30.09 "Hg10 mi
11:50 AM57 °FSunny.9 mph33%30.09 "Hg10 mi
11:20 AM57 °FPassing clouds.7 mph36%30.09 "HgN/A
10:50 AM57 °FPassing clouds.7 mph36%30.09 "HgN/A
10:20 AM55 °FSunny.5 mph38%30.09 "Hg10 mi
9:50 AM52 °FPassing clouds.3 mph47%30.09 "HgN/A
9:20 AM50 °FPassing clouds.3 mph54%30.09 "HgN/A
8:20 AM46 °FSunny.2 mph66%30.09 "Hg10 mi
7:50 AM45 °FSunny.3 mph71%30.12 "Hg10 mi
7:20 AM43 °FSunny.2 mph81%30.09 "Hg10 mi
6:50 AM39 °FSunny.2 mph87%30.09 "Hg10 mi
6:20 AM37 °FSunny.2 mph93%30.12 "Hg10 mi
5:50 AM37 °FSunny.1 mph87%30.12 "Hg10 mi
5:20 AM36 °FClear.2 mph100%30.12 "Hg10 mi
4:50 AM37 °FClear.1 mph93%30.12 "Hg10 mi
4:20 AM37 °FClear.2 mph93%30.12 "Hg10 mi
3:20 AM37 °FClear.2 mph93%30.12 "Hg10 mi
2:50 AM37 °FClear.2 mph87%30.12 "Hg10 mi
2:20 AM41 °FClear.1 mph81%30.12 "Hg10 mi
1:50 AM41 °FClear.2 mph81%30.12 "Hg10 mi
1:20 AM41 °FClear.No wind81%30.12 "Hg10 mi
12:50 AM43 °FClear.2 mph76%30.12 "Hg10 mi
12:20 AM43 °FClear.2 mph76%30.12 "Hg10 mi
11:50 PM
Mon, May 2
43 °FClear.2 mph81%30.12 "Hg10 mi
11:20 PM45 °FClear.3 mph71%30.12 "Hg10 mi
10:50 PM45 °FClear.5 mph71%30.12 "Hg10 mi
10:20 PM45 °FSunny.1 mph71%30.12 "Hg10 mi
9:50 PM50 °FSunny.1 mph54%30.12 "Hg10 mi
9:20 PM52 °FSunny.6 mph47%30.12 "Hg10 mi
8:50 PM54 °FSunny.5 mph41%30.12 "Hg10 mi
8:20 PM55 °FSunny.3 mph38%30.12 "Hg10 mi
7:50 PM55 °FSunny.7 mph38%30.12 "Hg10 mi
7:20 PM57 °FSunny.8 mph36%30.12 "Hg10 mi
6:50 PM59 °FSunny.10 mph34%30.15 "Hg10 mi
6:20 PM61 °FPassing clouds.10 mph31%30.15 "HgN/A
5:50 PM59 °FPassing clouds.7 mph34%30.15 "HgN/A
5:20 PM59 °FPassing clouds.3 mph31%30.15 "HgN/A
4:50 PM61 °FPassing clouds.5 mph31%30.15 "HgN/A
4:21 PM59 °FPassing clouds.8 mph34%30.15 "HgN/A
3:50 PM59 °FPassing clouds.7 mph31%30.18 "HgN/A
3:20 PM59 °FSunny.6 mph29%30.18 "Hg10 mi
2:50 PM61 °FPassing clouds.6 mph27%30.18 "HgN/A
2:20 PM59 °FPassing clouds.7 mph29%30.21 "HgN/A
Weather by CustomWeather, © 2016

See weather overviewHow to use our weather pages